{"data":{"norad_id":42692,"epoch":"2026-09-19T05:06:52.915680Z","epoch_age_seconds":138307,"freshness":"FRESH","line1":"1 42692U 17023B   26262.21311245 -.00000254  00000+0  00000+0 0  9993","line2":"2 42692   0.0215  83.6575 0002272  96.2774 180.0756  1.00272918 34346","mean_motion":1.00272918,"eccentricity":0.0002272,"inclination_deg":0.0215,"raan_deg":83.6575,"arg_perigee_deg":96.2774,"mean_anomaly_deg":180.0756,"bstar":0,"rev_number":3434,"period_min":1436.080677337,"perigee_km":35776.697588214,"apogee_km":35795.857098091,"semimajor_km":42164.414343152,"source":"CELESTRAK","updated_at":"2026-09-20T09:00:35.252764Z"}}